OAL063 SLPO-SBCG

Flight info

Callsign OAL063
Flight time 1h 37m
Altitude 37000
Route ALC UW14 VIR UM411 ATERU UZ42 IRIPI
Aircraft A320/M-SDE3FGHIRWY/LB1

Departure

Time 2026-05-08 19:26
Airport Capitan Nicolas Rojas Airport (SLPO)

Arrival

Time 2026-05-08 21:03
Airport Campo Grande Airport (SBCG)
Time Latitude Longitude Altitude Speed Heading
2026-05-08 18:45 -19.54895 -65.73140 12744 ft 0 kts 190°
2026-05-08 19:20 -19.54898 -65.73142 12751 ft 3 kts 202°
2026-05-08 19:20 -19.54857 -65.73142 12745 ft 16 kts 60°
2026-05-08 19:20 -19.54785 -65.73048 12741 ft 19 kts 33°
2026-05-08 19:21 -19.54679 -65.72947 12729 ft 24 kts 56°
2026-05-08 19:21 -19.54581 -65.72799 12719 ft 21 kts 56°
2026-05-08 19:21 -19.54489 -65.72651 12707 ft 27 kts 56°
2026-05-08 19:21 -19.54392 -65.72496 12695 ft 26 kts 57°
2026-05-08 19:22 -19.54302 -65.72352 12684 ft 23 kts 54°
2026-05-08 19:22 -19.54205 -65.72207 12675 ft 20 kts 55°
2026-05-08 19:22 -19.54116 -65.72068 12665 ft 22 kts 56°
2026-05-08 19:22 -19.54027 -65.71930 12656 ft 23 kts 56°
2026-05-08 19:23 -19.53931 -65.71781 12645 ft 24 kts 56°
2026-05-08 19:23 -19.53832 -65.71624 12633 ft 23 kts 56°
2026-05-08 19:23 -19.53734 -65.71466 12618 ft 28 kts 57°
2026-05-08 19:23 -19.53661 -65.71346 12611 ft 9 kts 55°
2026-05-08 19:24 -19.53604 -65.71302 12606 ft 7 kts 60°
2026-05-08 19:24 -19.53617 -65.71292 12604 ft 2 kts 179°
2026-05-08 19:24 -19.53621 -65.71297 12605 ft 0 kts 228°
2026-05-08 19:24 -19.53621 -65.71298 12605 ft 0 kts 229°
2026-05-08 19:25 -19.53622 -65.71299 12605 ft 6 kts 229°
2026-05-08 19:25 -19.53769 -65.71523 12623 ft 66 kts 237°
2026-05-08 19:25 -19.54123 -65.72083 12667 ft 114 kts 236°
2026-05-08 19:26 -19.54646 -65.72903 12730 ft 153 kts 236°
2026-05-08 19:26 -19.55274 -65.73895 13090 ft 164 kts 236°
2026-05-08 19:26 -19.55915 -65.74911 13646 ft 165 kts 239°
2026-05-08 19:26 -19.56522 -65.75960 13895 ft 171 kts 240°
2026-05-08 19:27 -19.57121 -65.77088 14099 ft 180 kts 243°
2026-05-08 19:27 -19.57711 -65.78290 14369 ft 191 kts 244°
2026-05-08 19:27 -19.58358 -65.79606 14549 ft 216 kts 240°
2026-05-08 19:27 -19.59179 -65.81039 14729 ft 239 kts 239°
2026-05-08 19:28 -19.60102 -65.82603 14866 ft 260 kts 239°
2026-05-08 19:28 -19.61100 -65.84283 14982 ft 279 kts 238°
2026-05-08 19:28 -19.62165 -65.86082 15106 ft 298 kts 239°
2026-05-08 19:28 -19.63309 -65.88005 15228 ft 317 kts 239°
2026-05-08 19:29 -19.64289 -65.90149 15346 ft 333 kts 255°
2026-05-08 19:29 -19.64532 -65.92638 15479 ft 348 kts 274°
2026-05-08 19:29 -19.63924 -65.95175 15595 ft 364 kts 295°
2026-05-08 19:29 -19.62440 -65.97399 15752 ft 379 kts 313°
2026-05-08 19:30 -19.60237 -65.99011 16051 ft 392 kts 332°
2026-05-08 19:30 -19.57595 -65.99828 16464 ft 402 kts 351°
2026-05-08 19:30 -19.54783 -65.99708 16904 ft 410 kts 11°
2026-05-08 19:30 -19.52123 -65.98580 17380 ft 416 kts 31°
2026-05-08 19:31 -19.49957 -65.96549 17919 ft 420 kts 51°
2026-05-08 19:31 -19.48542 -65.93848 18383 ft 422 kts 71°
2026-05-08 19:31 -19.47679 -65.90861 18772 ft 425 kts 74°
2026-05-08 19:31 -19.46856 -65.87839 19204 ft 429 kts 74°
2026-05-08 19:32 -19.46043 -65.84790 19652 ft 431 kts 74°
2026-05-08 19:32 -19.45228 -65.81721 20086 ft 434 kts 74°
2026-05-08 19:32 -19.44402 -65.78626 20494 ft 437 kts 74°
2026-05-08 19:32 -19.43564 -65.75517 20878 ft 441 kts 74°
2026-05-08 19:33 -19.42710 -65.72371 21278 ft 444 kts 74°
2026-05-08 19:33 -19.41851 -65.69223 21693 ft 447 kts 74°
2026-05-08 19:33 -19.40981 -65.66050 22101 ft 449 kts 74°
2026-05-08 19:33 -19.40106 -65.62868 22516 ft 452 kts 74°
2026-05-08 19:34 -19.39225 -65.59658 22886 ft 455 kts 74°
2026-05-08 19:34 -19.38343 -65.56436 23273 ft 457 kts 74°
2026-05-08 19:34 -19.37457 -65.53195 23627 ft 459 kts 74°
2026-05-08 19:34 -19.36569 -65.49940 23906 ft 462 kts 74°
2026-05-08 19:35 -19.35675 -65.46671 24247 ft 464 kts 73°
2026-05-08 19:35 -19.34771 -65.43370 24589 ft 467 kts 73°
2026-05-08 19:35 -19.33863 -65.40060 24931 ft 469 kts 73°
2026-05-08 19:35 -19.32952 -65.36737 25259 ft 471 kts 73°
2026-05-08 19:36 -19.32038 -65.33399 25597 ft 474 kts 73°
2026-05-08 19:36 -19.31113 -65.30036 25928 ft 476 kts 73°
2026-05-08 19:36 -19.30182 -65.26660 26242 ft 479 kts 73°
2026-05-08 19:36 -19.29244 -65.23266 26543 ft 482 kts 72°
2026-05-08 19:37 -19.28301 -65.19855 26814 ft 485 kts 73°
2026-05-08 19:37 -19.27349 -65.16429 27082 ft 487 kts 71°
2026-05-08 19:37 -19.25922 -65.13192 27340 ft 486 kts 56°
2026-05-08 19:37 -19.23951 -65.10212 27584 ft 487 kts 50°
2026-05-08 19:38 -19.21810 -65.07503 27913 ft 486 kts 45°
2026-05-08 19:38 -19.19480 -65.04855 28315 ft 484 kts 43°
2026-05-08 19:38 -19.17142 -65.02299 28651 ft 484 kts 43°
2026-05-08 19:38 -19.14844 -64.99755 29011 ft 484 kts 44°
2026-05-08 19:39 -19.12537 -64.97096 29395 ft 485 kts 44°
2026-05-08 19:39 -19.10307 -64.94423 29788 ft 484 kts 45°
2026-05-08 19:39 -19.08114 -64.91720 30146 ft 485 kts 46°
2026-05-08 19:39 -19.05933 -64.89000 30454 ft 484 kts 46°
2026-05-08 19:40 -19.03756 -64.86289 30802 ft 483 kts 46°
2026-05-08 19:40 -19.01572 -64.83592 31171 ft 482 kts 45°
2026-05-08 19:40 -18.99380 -64.80905 31526 ft 481 kts 45°
2026-05-08 19:40 -18.97189 -64.78236 31946 ft 480 kts 45°
2026-05-08 19:41 -18.94998 -64.75580 32378 ft 479 kts 44°
2026-05-08 19:41 -18.92807 -64.72937 32783 ft 477 kts 44°
2026-05-08 19:41 -18.90617 -64.70298 33205 ft 476 kts 44°
2026-05-08 19:41 -18.88437 -64.67665 33627 ft 475 kts 44°
2026-05-08 19:42 -18.86275 -64.65043 34035 ft 474 kts 44°
2026-05-08 19:42 -18.84112 -64.62415 34379 ft 473 kts 44°
2026-05-08 19:42 -18.81961 -64.59805 34717 ft 471 kts 44°
2026-05-08 19:42 -18.79810 -64.57196 35036 ft 470 kts 43°
2026-05-08 19:43 -18.77666 -64.54602 35310 ft 470 kts 44°
2026-05-08 19:43 -18.75520 -64.51988 35587 ft 470 kts 44°
2026-05-08 19:43 -18.73391 -64.49378 35890 ft 469 kts 44°
2026-05-08 19:43 -18.71272 -64.46768 36210 ft 468 kts 44°
2026-05-08 19:44 -18.69163 -64.44167 36534 ft 466 kts 43°
2026-05-08 19:44 -18.67056 -64.41571 36817 ft 466 kts 43°
2026-05-08 19:44 -18.64940 -64.38974 36904 ft 468 kts 43°
2026-05-08 19:45 -18.60656 -64.33737 36913 ft 474 kts 43°
2026-05-08 19:45 -18.56339 -64.28458 36913 ft 476 kts 43°
2026-05-08 19:46 -18.52013 -64.23163 36923 ft 477 kts 43°
2026-05-08 19:46 -18.45497 -64.15191 36932 ft 479 kts 43°
2026-05-08 19:47 -18.41146 -64.09881 36942 ft 479 kts 43°
2026-05-08 19:47 -18.36782 -64.04572 36960 ft 480 kts 43°
2026-05-08 19:48 -18.32420 -63.99257 36968 ft 480 kts 43°
2026-05-08 19:48 -18.28058 -63.93941 36976 ft 480 kts 43°
2026-05-08 19:49 -18.23681 -63.88619 36988 ft 481 kts 43°
2026-05-08 19:49 -18.20009 -63.84155 36990 ft 482 kts 43°
2026-05-08 19:50 -18.15628 -63.78825 36994 ft 482 kts 43°
2026-05-08 19:50 -18.11238 -63.73493 37000 ft 482 kts 43°
2026-05-08 19:51 -18.06847 -63.68173 37002 ft 482 kts 42°
2026-05-08 19:51 -18.02458 -63.62853 37004 ft 482 kts 42°
2026-05-08 19:52 -17.98066 -63.57537 37002 ft 482 kts 42°
2026-05-08 19:52 -17.93672 -63.52228 36995 ft 481 kts 42°
2026-05-08 19:53 -17.89275 -63.46916 37000 ft 481 kts 42°
2026-05-08 19:53 -17.84893 -63.41626 37000 ft 480 kts 42°
2026-05-08 19:54 -17.80503 -63.36335 36998 ft 480 kts 42°
2026-05-08 19:54 -17.76128 -63.31060 36996 ft 479 kts 42°
2026-05-08 19:55 -17.71761 -63.25798 36995 ft 478 kts 42°
2026-05-08 19:55 -17.67463 -63.20477 36964 ft 482 kts 50°
2026-05-08 19:56 -17.65802 -63.17391 36972 ft 491 kts 62°
2026-05-08 19:56 -17.64768 -63.13950 36972 ft 498 kts 75°
2026-05-08 19:56 -17.64446 -63.10325 36968 ft 504 kts 89°
2026-05-08 19:56 -17.64868 -63.06670 36963 ft 507 kts 103°
2026-05-08 19:57 -17.66805 -62.99550 36967 ft 508 kts 105°
2026-05-08 19:57 -17.68770 -62.92429 36964 ft 509 kts 104°
2026-05-08 19:58 -17.70730 -62.85292 36967 ft 509 kts 104°
2026-05-08 19:58 -17.72695 -62.78115 36976 ft 509 kts 104°
2026-05-08 19:59 -17.74646 -62.70991 36976 ft 508 kts 104°
2026-05-08 19:59 -17.76599 -62.63855 36973 ft 508 kts 104°
2026-05-08 20:00 -17.78540 -62.56733 36984 ft 508 kts 104°
2026-05-08 20:00 -17.80483 -62.49600 36982 ft 508 kts 104°
2026-05-08 20:01 -17.82428 -62.42461 36986 ft 508 kts 104°
2026-05-08 20:01 -17.84362 -62.35337 36985 ft 508 kts 104°
2026-05-08 20:02 -17.86294 -62.28209 36983 ft 507 kts 104°
2026-05-08 20:02 -17.88222 -62.21086 36990 ft 507 kts 104°
2026-05-08 20:03 -17.90150 -62.13957 36986 ft 507 kts 104°
2026-05-08 20:03 -17.92075 -62.06834 36984 ft 507 kts 104°
2026-05-08 20:04 -17.94000 -61.99714 36991 ft 507 kts 104°
2026-05-08 20:04 -17.95923 -61.92583 36988 ft 507 kts 104°
2026-05-08 20:05 -17.97830 -61.85462 36988 ft 507 kts 104°
2026-05-08 20:05 -17.99740 -61.78327 36989 ft 507 kts 104°
2026-05-08 20:06 -18.01684 -61.71203 36991 ft 507 kts 105°
2026-05-08 20:06 -18.03635 -61.64098 36996 ft 506 kts 105°
2026-05-08 20:07 -18.05579 -61.56986 36995 ft 506 kts 105°
2026-05-08 20:07 -18.07512 -61.49868 36999 ft 506 kts 105°
2026-05-08 20:08 -18.09443 -61.42747 37001 ft 506 kts 105°
2026-05-08 20:08 -18.11416 -61.35610 36997 ft 506 kts 105°
2026-05-08 20:09 -18.13415 -61.28556 36995 ft 506 kts 105°
2026-05-08 20:09 -18.15431 -61.21414 36997 ft 507 kts 105°
2026-05-08 20:10 -18.17421 -61.14307 36994 ft 506 kts 105°
2026-05-08 20:10 -18.19392 -61.07201 36988 ft 506 kts 105°
2026-05-08 20:11 -18.21361 -61.00097 36987 ft 506 kts 105°
2026-05-08 20:11 -18.23337 -60.92971 36983 ft 506 kts 105°
2026-05-08 20:12 -18.25314 -60.85860 36978 ft 506 kts 105°
2026-05-08 20:12 -18.27289 -60.78760 36977 ft 506 kts 105°
2026-05-08 20:13 -18.29254 -60.71643 36977 ft 506 kts 105°
2026-05-08 20:13 -18.31213 -60.64537 36981 ft 506 kts 105°
2026-05-08 20:14 -18.33174 -60.57428 36980 ft 506 kts 105°
2026-05-08 20:14 -18.35126 -60.50314 36980 ft 506 kts 105°
2026-05-08 20:15 -18.37083 -60.43202 36980 ft 505 kts 105°
2026-05-08 20:15 -18.39046 -60.36101 36977 ft 505 kts 105°
2026-05-08 20:16 -18.40992 -60.29001 36982 ft 505 kts 105°
2026-05-08 20:16 -18.42928 -60.21890 36987 ft 505 kts 105°
2026-05-08 20:17 -18.44864 -60.14781 36982 ft 505 kts 105°
2026-05-08 20:17 -18.46800 -60.07684 36994 ft 504 kts 105°
2026-05-08 20:18 -18.48738 -60.00582 37006 ft 504 kts 105°
2026-05-08 20:18 -18.50682 -59.93433 37012 ft 504 kts 105°
2026-05-08 20:19 -18.52603 -59.86339 37014 ft 504 kts 105°
2026-05-08 20:19 -18.54526 -59.79238 37015 ft 504 kts 105°
2026-05-08 20:20 -18.56446 -59.72136 37012 ft 504 kts 105°
2026-05-08 20:20 -18.58357 -59.65040 36999 ft 503 kts 105°
2026-05-08 20:21 -18.60278 -59.57941 36985 ft 504 kts 105°
2026-05-08 20:21 -18.62193 -59.50843 36979 ft 504 kts 105°
2026-05-08 20:22 -18.64098 -59.43742 36980 ft 503 kts 104°
2026-05-08 20:22 -18.65687 -59.37834 36979 ft 503 kts 104°
2026-05-08 20:23 -18.67586 -59.30730 36980 ft 503 kts 104°
2026-05-08 20:23 -18.69473 -59.23639 36974 ft 503 kts 105°
2026-05-08 20:24 -18.71376 -59.16542 36975 ft 503 kts 105°
2026-05-08 20:24 -18.73285 -59.09393 36976 ft 503 kts 104°
2026-05-08 20:25 -18.75163 -59.02338 36971 ft 503 kts 105°
2026-05-08 20:25 -18.77074 -58.95186 36974 ft 503 kts 105°
2026-05-08 20:26 -18.78961 -58.88085 36973 ft 503 kts 104°
2026-05-08 20:26 -18.80840 -58.80978 36970 ft 503 kts 104°
2026-05-08 20:27 -18.82716 -58.73869 36970 ft 503 kts 104°
2026-05-08 20:27 -18.84588 -58.66766 36970 ft 502 kts 104°
2026-05-08 20:28 -18.86475 -58.59652 36970 ft 502 kts 105°
2026-05-08 20:28 -18.88403 -58.52562 36965 ft 503 kts 105°
2026-05-08 20:29 -18.90346 -58.45475 36963 ft 503 kts 105°
2026-05-08 20:29 -18.92282 -58.38379 36964 ft 503 kts 105°
2026-05-08 20:30 -18.94205 -58.31284 36960 ft 503 kts 105°
2026-05-08 20:30 -18.96123 -58.24174 36958 ft 503 kts 105°
2026-05-08 20:31 -18.98067 -58.17079 36956 ft 503 kts 105°
2026-05-08 20:31 -19.00013 -58.09975 36941 ft 503 kts 105°
2026-05-08 20:32 -19.01954 -58.02861 36929 ft 503 kts 105°
2026-05-08 20:32 -19.03883 -57.95748 36919 ft 504 kts 105°
2026-05-08 20:33 -19.05831 -57.88589 36907 ft 503 kts 105°
2026-05-08 20:33 -19.07766 -57.81473 36908 ft 504 kts 105°
2026-05-08 20:34 -19.09884 -57.74418 36933 ft 504 kts 109°
2026-05-08 20:35 -19.13518 -57.63980 36936 ft 504 kts 110°
2026-05-08 20:35 -19.15910 -57.57006 36934 ft 504 kts 109°
2026-05-08 20:36 -19.18222 -57.50004 36937 ft 504 kts 109°
2026-05-08 20:36 -19.20520 -57.43000 36935 ft 504 kts 109°
2026-05-08 20:37 -19.22834 -57.35997 36941 ft 504 kts 109°
2026-05-08 20:37 -19.25159 -57.28986 36940 ft 504 kts 109°
2026-05-08 20:38 -19.27477 -57.21985 36936 ft 504 kts 109°
2026-05-08 20:38 -19.29789 -57.14980 36935 ft 504 kts 109°
2026-05-08 20:39 -19.32099 -57.07977 36935 ft 504 kts 109°
2026-05-08 20:39 -19.34406 -57.00969 36930 ft 504 kts 109°
2026-05-08 20:40 -19.37317 -56.94234 36928 ft 503 kts 118°
2026-05-08 20:40 -19.40553 -56.87660 36924 ft 503 kts 118°
2026-05-08 20:41 -19.43808 -56.81041 36925 ft 504 kts 118°
2026-05-08 20:41 -19.47020 -56.74495 36922 ft 504 kts 118°
2026-05-08 20:42 -19.50265 -56.67861 36920 ft 504 kts 118°
2026-05-08 20:42 -19.53495 -56.61251 36921 ft 504 kts 118°
2026-05-08 20:43 -19.56721 -56.54653 36914 ft 504 kts 118°
2026-05-08 20:43 -19.59930 -56.48075 36912 ft 505 kts 118°
2026-05-08 20:44 -19.63177 -56.41425 36905 ft 505 kts 118°
2026-05-08 20:44 -19.66408 -56.34799 36905 ft 505 kts 118°
2026-05-08 20:45 -19.69622 -56.28167 36900 ft 506 kts 118°
2026-05-08 20:45 -19.72845 -56.21519 36901 ft 506 kts 119°
2026-05-08 20:46 -19.76076 -56.14872 36900 ft 506 kts 119°
2026-05-08 20:46 -19.79310 -56.08213 36050 ft 512 kts 119°
2026-05-08 20:46 -19.80958 -56.04823 35015 ft 521 kts 119°
2026-05-08 20:47 -19.82623 -56.01388 34079 ft 527 kts 119°
2026-05-08 20:47 -19.84303 -55.97915 33086 ft 531 kts 119°
2026-05-08 20:47 -19.85990 -55.94422 32100 ft 533 kts 119°
2026-05-08 20:47 -19.87679 -55.90917 31117 ft 534 kts 119°
2026-05-08 20:48 -19.89373 -55.87400 30121 ft 535 kts 119°
2026-05-08 20:48 -19.91068 -55.83880 28956 ft 536 kts 119°
2026-05-08 20:48 -19.92768 -55.80355 27721 ft 536 kts 118°
2026-05-08 20:48 -19.94468 -55.76823 26575 ft 536 kts 118°
2026-05-08 20:49 -19.96157 -55.73311 25607 ft 532 kts 118°
2026-05-08 20:49 -19.97834 -55.69827 24741 ft 527 kts 117°
2026-05-08 20:49 -19.99495 -55.66378 23955 ft 521 kts 117°
2026-05-08 20:49 -20.01201 -55.63001 23155 ft 515 kts 122°
2026-05-08 20:50 -20.03295 -55.59959 22301 ft 507 kts 132°
2026-05-08 20:50 -20.05624 -55.57178 21492 ft 501 kts 133°
2026-05-08 20:50 -20.07928 -55.54432 20709 ft 495 kts 133°
2026-05-08 20:50 -20.10204 -55.51717 19958 ft 489 kts 133°
2026-05-08 20:51 -20.12454 -55.49030 19228 ft 483 kts 133°
2026-05-08 20:51 -20.14674 -55.46374 18508 ft 478 kts 133°
2026-05-08 20:51 -20.16875 -55.43737 17737 ft 473 kts 133°
2026-05-08 20:51 -20.19049 -55.41133 16787 ft 471 kts 133°
2026-05-08 20:52 -20.21223 -55.38533 16053 ft 466 kts 133°
2026-05-08 20:52 -20.23348 -55.35988 15468 ft 458 kts 132°
2026-05-08 20:52 -20.25225 -55.33239 14842 ft 454 kts 120°
2026-05-08 20:52 -20.26667 -55.30268 14259 ft 450 kts 115°
2026-05-08 20:53 -20.28039 -55.27285 13397 ft 444 kts 115°
2026-05-08 20:53 -20.29387 -55.24357 12088 ft 439 kts 115°
2026-05-08 20:53 -20.30723 -55.21457 10833 ft 432 kts 115°
2026-05-08 20:53 -20.32033 -55.18614 9769 ft 422 kts 115°
2026-05-08 20:54 -20.33287 -55.15885 9473 ft 394 kts 114°
2026-05-08 20:54 -20.34462 -55.13297 9317 ft 383 kts 114°
2026-05-08 20:54 -20.35590 -55.10835 9175 ft 378 kts 114°
2026-05-08 20:54 -20.36747 -55.08318 9057 ft 378 kts 114°
2026-05-08 20:55 -20.37900 -55.05810 8713 ft 376 kts 114°
2026-05-08 20:55 -20.39069 -55.03328 8161 ft 375 kts 118°
2026-05-08 20:55 -20.40091 -55.01791 7776 ft 376 kts 130°
2026-05-08 20:55 -20.42552 -54.99184 6828 ft 372 kts 135°
2026-05-08 20:56 -20.43801 -54.97910 6370 ft 366 kts 135°
2026-05-08 20:56 -20.45625 -54.96057 5680 ft 357 kts 135°
2026-05-08 20:56 -20.47388 -54.94270 5370 ft 338 kts 135°
2026-05-08 20:56 -20.49031 -54.92604 5298 ft 314 kts 135°
2026-05-08 20:57 -20.50561 -54.91047 5226 ft 293 kts 134°
2026-05-08 20:57 -20.51986 -54.89590 5112 ft 275 kts 134°
2026-05-08 20:57 -20.53323 -54.88218 4985 ft 262 kts 134°
2026-05-08 20:57 -20.54375 -54.87086 4878 ft 253 kts 131°
2026-05-08 20:58 -20.55545 -54.85745 4804 ft 240 kts 130°
2026-05-08 20:58 -20.56636 -54.84458 4675 ft 230 kts 130°
2026-05-08 20:58 -20.57684 -54.83218 4537 ft 219 kts 129°
2026-05-08 20:58 -20.58668 -54.82045 4418 ft 207 kts 125°
2026-05-08 20:59 -20.59227 -54.80714 4285 ft 190 kts 88°
2026-05-08 20:59 -20.59075 -54.79387 4021 ft 175 kts 56°
2026-05-08 20:59 -20.58396 -54.78398 3988 ft 163 kts 32°
2026-05-08 20:59 -20.57544 -54.77577 3992 ft 167 kts 32°
2026-05-08 21:00 -20.56681 -54.76745 3969 ft 168 kts 32°
2026-05-08 21:00 -20.55829 -54.75920 3816 ft 162 kts 32°
2026-05-08 21:00 -20.55031 -54.75145 3659 ft 149 kts 31°
2026-05-08 21:00 -20.54278 -54.74418 3478 ft 145 kts 32°
2026-05-08 21:01 -20.53532 -54.73700 3299 ft 144 kts 32°
2026-05-08 21:01 -20.52795 -54.72989 3117 ft 141 kts 32°
2026-05-08 21:01 -20.52060 -54.72281 2940 ft 142 kts 32°
2026-05-08 21:01 -20.51326 -54.71574 2755 ft 143 kts 32°
2026-05-08 21:02 -20.50585 -54.70859 2569 ft 145 kts 35°
2026-05-08 21:02 -20.49838 -54.70138 2395 ft 144 kts 39°
2026-05-08 21:02 -20.49106 -54.69432 2191 ft 142 kts 39°
2026-05-08 21:02 -20.48552 -54.68908 2075 ft 139 kts 39°
2026-05-08 21:03 -20.47853 -54.68210 1874 ft 136 kts 40°
2026-05-08 21:03 -20.47199 -54.67587 1838 ft 114 kts 41°
2026-05-08 21:03 -20.46749 -54.67161 1839 ft 55 kts 42°
2026-05-08 21:03 -20.46557 -54.66976 1839 ft 32 kts 41°
2026-05-08 21:04 -20.46405 -54.66833 1838 ft 24 kts 42°
2026-05-08 21:04 -20.46298 -54.66728 1837 ft 22 kts 43°
2026-05-08 21:04 -20.46189 -54.66622 1838 ft 18 kts 42°
2026-05-08 21:04 -20.46112 -54.66618 1839 ft 10 kts 337°
2026-05-08 21:05 -20.46038 -54.66650 1839 ft 12 kts 338°
2026-05-08 21:05 -20.45952 -54.66686 1839 ft 15 kts 339°
2026-05-08 21:05 -20.45852 -54.66731 1839 ft 16 kts 324°
2026-05-08 21:05 -20.45840 -54.66829 1839 ft 8 kts 264°
2026-05-08 21:06 -20.45799 -54.66855 1839 ft 8 kts 356°
2026-05-08 21:06 -20.45792 -54.66856 1839 ft 0 kts 356°